Weather History for PAPB - February, 2013

Change the Weather History Date:

Thursday, February 14, 2013

  Actual Average Record
Temperature  
Mean Temperature 8 °F -  
Max Temperature 10 °F 29 °F 37 °F (2004)
Min Temperature 5 °F 23 °F 5 °F (2002)
Degree Days  
Heating Degree Days 58    
Moisture  
Dew Point 3 °F    
Average Humidity 82    
Maximum Humidity 85    
Minimum Humidity 77    
Precipitation  
Precipitation 0.00 in - - ()
Sea Level Pressure  
Sea Level Pressure 29.92 in    
Wind  
Wind Speed 19 mph (NNW)    
Max Wind Speed 24 mph    
Max Gust Speed 33 mph    
Visibility 3 miles    
Events Fog , Snow    
Averages and records for this station are not official NWS values.
T = Trace of Precipitation, MM = Missing Value Source: NWS Daily Summary

Daily Weather History Graph

Daily Weather History Graph

Search for Another Location

Airport or City:

Trip Planner

Search our weather history database for the weather conditions in past years. The results will help you decide how hot, cold, wet, or windy it might be!

Date:

Astronomy

Feb. 14, 2013 Rise Set
Actual Time 9:46 AM AKST 7:19 PM AKST
Civil Twilight 9:07 AM AKST 7:59 PM AKST
Nautical Twilight 8:22 AM AKST 8:43 PM AKST
Astronomical Twilight 7:39 AM AKST 9:27 PM AKST
Moon 10:50 AM AKST (2/14) 12:36 AM AKST (2/14)
Length of Visible Light 10h 52m
Length of Day
9h 33m
Waxing Crescent, 23% of the Moon is Illuminated
Feb 14
Waxing Crescent
Feb 17
First Quarter
Feb 25
Full
Mar 4
Last Quarter
Mar 11
New

Hourly Weather History & Observations

Time (AKST) Temp. Windchill Dew Point Humidity Pressure Visibility Wind Dir Wind Speed Gust Speed Precip Events Conditions
12:05 AM 6.8 °F -13.4 °F 3.2 °F 85% 29.82 in 1.5 mi NNW 20.7 mph 33.4 mph N/A   Overcast
12:13 AM 6.8 °F -11.8 °F 3.2 °F 85% 29.83 in 3.0 mi North 17.3 mph 31.1 mph N/A   Overcast
12:17 AM 6.8 °F -13.4 °F 3.2 °F 85% 29.83 in 2.5 mi North 20.7 mph 31.1 mph N/A   Overcast
12:45 AM 8.6 °F -11.0 °F 3.2 °F 79% 29.84 in 1.5 mi North 20.7 mph 26.5 mph N/A   Overcast
12:53 AM 8.1 °F -11.2 °F 3.0 °F 80% 29.81 in 2.0 mi NNW 19.6 mph 28.8 mph N/A   Haze
1:11 AM 8.6 °F -10.5 °F 3.2 °F 79% 29.84 in 1.8 mi North 19.6 mph 27.6 mph N/A   Overcast
1:19 AM 8.6 °F -12.3 °F 3.2 °F 79% 29.84 in 0.8 mi NNW 24.2 mph 31.1 mph 0.00 in Snow Light Snow
1:42 AM 6.8 °F -14.7 °F 3.2 °F 85% 29.84 in 1.2 mi North 24.2 mph 33.4 mph 0.00 in   Overcast
1:53 AM 7.0 °F -13.6 °F 3.0 °F 84% 29.81 in 1.2 mi North 21.9 mph 33.4 mph 0.00 in   Overcast
2:05 AM 6.8 °F -13.8 °F 3.2 °F 85% 29.84 in 1.2 mi NNW 21.9 mph 29.9 mph N/A   Overcast
2:25 AM 6.8 °F -13.8 °F 3.2 °F 85% 29.85 in 0.8 mi NNW 21.9 mph 26.5 mph 0.00 in Snow Light Snow
3:08 AM 6.8 °F -14.3 °F 3.2 °F 85% 29.85 in 1.2 mi NNW 23.0 mph - 0.00 in   Mostly Cloudy
3:21 AM 6.8 °F -13.4 °F 3.2 °F 85% 29.86 in 1.0 mi North 20.7 mph - 0.00 in   Overcast
3:33 AM 6.8 °F -12.9 °F 3.2 °F 85% 29.86 in 0.5 mi NNW 19.6 mph 28.8 mph 0.00 in Fog , Snow Light Snow
3:44 AM 6.8 °F -12.4 °F 3.2 °F 85% 29.86 in 1.2 mi NNW 18.4 mph 25.3 mph 0.00 in   Overcast
3:53 AM 7.0 °F -13.1 °F 3.0 °F 84% 29.83 in 1.5 mi NNW 20.7 mph 29.9 mph 0.00 in   Overcast
4:12 AM 6.8 °F -11.8 °F 1.4 °F 79% 29.87 in 2.0 mi North 17.3 mph 27.6 mph N/A   Haze
4:25 AM 6.8 °F -12.4 °F 1.4 °F 79% 29.87 in 3.0 mi NNW 18.4 mph 25.3 mph N/A   Haze
4:32 AM 6.8 °F -12.4 °F 1.4 °F 79% 29.87 in 2.0 mi NNW 18.4 mph 27.6 mph N/A   Haze
4:39 AM 6.8 °F -12.4 °F 1.4 °F 79% 29.87 in 1.8 mi North 18.4 mph 27.6 mph N/A   Overcast
4:49 AM 6.8 °F -11.8 °F 1.4 °F 79% 29.87 in 2.0 mi NNW 17.3 mph 25.3 mph N/A   Overcast
4:53 AM 6.1 °F -13.8 °F 1.9 °F 83% 29.84 in 2.5 mi NNW 19.6 mph - N/A   Overcast
6:49 AM 5.0 °F -14.7 °F 1.4 °F 85% 29.89 in 1.8 mi NNW 18.4 mph 23.0 mph N/A   Overcast
6:53 AM 6.1 °F -12.8 °F 1.9 °F 83% 29.86 in 1.5 mi NNW 17.3 mph 25.3 mph N/A   Overcast
7:02 AM 5.0 °F -16.7 °F 1.4 °F 85% 29.89 in 0.8 mi NNW 23.0 mph 27.6 mph N/A   Overcast
7:11 AM 5.0 °F -15.7 °F 1.4 °F 85% 29.90 in 1.2 mi NNW 20.7 mph 26.5 mph N/A   Overcast
7:24 AM 6.8 °F -13.4 °F 1.4 °F 79% 29.90 in 0.8 mi NNW 20.7 mph 25.3 mph N/A   Overcast
7:50 AM 6.8 °F -12.4 °F 1.4 °F 79% 29.91 in 1.2 mi North 18.4 mph 28.8 mph 0.00 in   Overcast
7:53 AM 6.1 °F -12.8 °F 1.9 °F 83% 29.88 in 1.2 mi North 17.3 mph 28.8 mph 0.00 in   Overcast
8:04 AM 6.8 °F -12.9 °F 3.2 °F 85% 29.90 in 0.8 mi NNW 19.6 mph 29.9 mph 0.00 in Snow Light Snow
8:15 AM 6.8 °F -13.8 °F 1.4 °F 79% 29.91 in 1.2 mi NNW 21.9 mph 27.6 mph 0.00 in   Overcast
8:33 AM 6.8 °F -14.3 °F 1.4 °F 79% 29.91 in 2.0 mi NNW 23.0 mph 28.8 mph 0.00 in   Overcast
8:53 AM 6.1 °F -13.8 °F 1.9 °F 83% 29.89 in 1.0 mi NNW 19.6 mph 28.8 mph 0.00 in Snow Light Snow
9:01 AM 6.8 °F -12.9 °F 3.2 °F 85% 29.92 in 2.0 mi NNW 19.6 mph 26.5 mph 0.00 in   Overcast
9:23 AM 6.8 °F -11.8 °F 1.4 °F 79% 29.92 in 5.0 mi North 17.3 mph - 0.00 in   Overcast
9:53 AM 6.1 °F -13.8 °F 1.9 °F 83% 29.90 in 4.0 mi NNW 19.6 mph - 0.00 in   Mostly Cloudy
10:29 AM 6.8 °F -12.9 °F 1.4 °F 79% 29.94 in 5.0 mi NNW 19.6 mph - N/A   Haze
10:40 AM 6.8 °F -11.8 °F 3.2 °F 85% 29.94 in 4.0 mi NNW 17.3 mph - N/A   Overcast
10:50 AM 6.8 °F -12.4 °F 3.2 °F 85% 29.94 in 4.0 mi NNW 18.4 mph - N/A   Overcast
10:53 AM 7.0 °F -11.6 °F 1.9 °F 80% 29.92 in 4.0 mi NNW 17.3 mph - N/A   Haze
11:10 AM 8.6 °F -10.0 °F 3.2 °F 79% 29.95 in 2.0 mi NNW 18.4 mph - 0.00 in Snow Light Snow
11:18 AM 6.8 °F -13.4 °F 3.2 °F 85% 29.96 in 1.8 mi NNW 20.7 mph - 0.00 in   Overcast
11:23 AM 8.6 °F -8.9 °F 3.2 °F 79% 29.96 in 3.0 mi NNW 16.1 mph - 0.00 in   Haze
11:53 AM 8.1 °F -9.6 °F 3.0 °F 80% 29.94 in 6.0 mi NNW 16.1 mph - 0.00 in   Haze
12:53 PM 9.0 °F -10.0 °F 3.9 °F 80% 29.94 in 7.0 mi NNW 19.6 mph - 0.00 in   Overcast
1:53 PM 9.0 °F -7.9 °F 3.9 °F 80% 29.96 in 7.0 mi NNW 15.0 mph - N/A   Overcast
2:53 PM 9.0 °F -7.3 °F 3.9 °F 80% 29.96 in 4.0 mi NNW 13.8 mph - N/A   Haze
3:53 PM 10.0 °F -6.5 °F 5.0 °F 80% 29.95 in 2.5 mi NNW 15.0 mph - 0.00 in Snow Light Snow
4:02 PM 10.4 °F -6.0 °F 5.0 °F 79% 29.99 in 5.0 mi NNW 15.0 mph - 0.00 in   Haze
4:53 PM 10.0 °F -5.9 °F 5.0 °F 80% 29.97 in 4.0 mi NNW 13.8 mph - 0.00 in   Haze
5:08 PM 10.4 °F -6.0 °F 6.8 °F 85% 30.00 in 2.0 mi NW 15.0 mph - 0.00 in Snow Light Snow
5:34 PM 10.4 °F -5.4 °F 6.8 °F 85% 30.00 in 1.5 mi NNW 13.8 mph - 0.00 in Snow Light Snow
5:53 PM 10.9 °F -4.7 °F 7.0 °F 84% 29.97 in 1.0 mi NNW 13.8 mph - 0.00 in Snow Light Snow
6:07 PM 10.4 °F -4.8 °F 6.8 °F 85% 30.01 in 1.5 mi NNW 12.7 mph - 0.00 in Snow Light Snow
6:21 PM 10.4 °F -5.4 °F 5.0 °F 79% 30.01 in 3.0 mi NW 13.8 mph - 0.00 in Snow Light Snow
6:53 PM 10.9 °F -5.4 °F 5.0 °F 77% 29.99 in 5.0 mi NW 15.0 mph - 0.00 in   Haze
7:06 PM 10.4 °F -6.0 °F 6.8 °F 85% 30.02 in 1.8 mi NNW 15.0 mph - 0.00 in Snow Light Snow
7:20 PM 10.4 °F -5.4 °F 6.8 °F 85% 30.02 in 2.5 mi NNW 13.8 mph - 0.00 in Snow Light Snow
7:29 PM 10.4 °F -5.4 °F 5.0 °F 79% 30.03 in 4.0 mi NNW 13.8 mph - 0.00 in   Haze
7:53 PM 10.0 °F -5.2 °F 5.0 °F 80% 30.01 in 5.0 mi NNW 12.7 mph - 0.00 in Snow Light Snow
8:53 PM 10.0 °F -5.9 °F 5.0 °F 80% 30.03 in 6.0 mi NNW 13.8 mph - 0.00 in   Haze
9:53 PM 9.0 °F -7.3 °F 3.9 °F 80% 30.05 in 10.0 mi NNW 13.8 mph - N/A   Overcast
10:28 PM 8.6 °F -5.5 °F 3.2 °F 79% 30.09 in 10.0 mi North 10.4 mph - N/A   Overcast
10:44 PM 8.6 °F -6.3 °F 3.2 °F 79% 30.10 in 10.0 mi NNW 11.5 mph - N/A   Overcast
10:53 PM 9.0 °F -5.9 °F 3.9 °F 80% 30.07 in 9.0 mi NNW 11.5 mph - N/A   Overcast
11:53 PM 8.1 °F -4.3 °F 3.0 °F 80% 30.08 in 10.0 mi North 8.1 mph - N/A   Mostly Cloudy